[[{"header":{"parameterUnit":"m.s-1","parameterCategory":1,"la1":30.2991,"la2":30.254,"lo1":-89.0895,"lo2":-89.0444,"dy":0.0017,"dx":0.0017,"nx":28,"ny":28,"refTime":"2024-03-04T03:00:00:Z","depth":0,"parameterNumber":2,"parameterNumberName":"U-component_of_WINDS"},"data":[0,0,0,0,0,0,0,0,0,0,0,0,0,0,0,0,0,0,0,0,0,0,0,0,0,0,0,0,0,0,0,0,0,0,0,0,0,0,0,0,0,0,0,0,0,0,0,0,0,0,0,0,0,0,0,0,0,0,-4.7506,-4.7506,0,-4.7537,-4.7537,-4.7538,-4.7466,-4.7464,-4.7461,-4.7459,-4.7491,-4.7494,-4.7497,0,0,0,0,0,0,0,0,0,0,0,0,0,-4.7386,-4.7388,-4.7506,-4.7506,-4.7507,-4.7537,-4.7538,-4.7538,-4.7466,-4.7464,-4.7461,-4.7458,-4.749,-4.7493,-4.7497,0,0,0,0,0,0,0,0,0,0,0,0,0,-4.7429,-4.7389,-4.7506,-4.7475,-4.7472,-4.7537,-4.7538,-4.7538,-4.7467,-4.7463,-4.746,-4.7457,-4.7489,-4.7493,-4.7497,-4.7594,0,0,-4.7511,-4.7513,0,0,0,0,0,0,0,0,-4.7427,-4.7434,-4.7479,-4.7477,-4.7474,-4.7494,-4.7507,-4.7557,-4.7468,-4.7469,-4.7459,-4.7455,-4.7495,-4.7498,-4.7512,-4.7595,-4.7597,-4.7512,-4.7514,-4.7516,-4.7517,0,0,0,0,0,0,0,-4.7424,-4.7432,-4.7518,-4.748,-4.7477,-4.7459,-4.7462,-4.7516,-4.7501,-4.7469,-4.7463,-4.7468,-4.7493,-4.7508,-4.7512,-4.7597,-4.7511,-4.7515,-4.7518,-4.752,-4.7764,-4.7768,0,0,0,0,0,0,-4.7425,-4.743,-4.7517,-4.7519,-4.7442,-4.7464,-4.7467,-4.7491,-4.75,-4.7498,-4.7471,-4.7465,-4.7502,-4.7507,-4.7513,-4.7628,-4.7516,-4.752,-4.7523,-4.776,-4.7765,-4.7769,0,0,0,0,0,0,-4.7423,-4.7433,-4.7516,-4.7473,-4.7483,-4.747,-4.7498,-4.7494,-4.7509,-4.7502,-4.7499,-4.7489,-4.7499,-4.7507,-4.7575,-4.7628,-4.7522,-4.7526,-4.7756,-4.7762,-4.7767,-4.7859,0,0,0,0,0,0,-4.742,-4.7433,-4.7469,-4.7475,-4.7485,-4.7578,-4.7501,-4.7497,-4.7516,-4.7508,-4.7518,-4.7516,-4.7497,-4.7569,-4.7579,-4.7633,-4.753,-4.7751,-4.7758,-4.7765,-4.7851,-4.7867,-4.7881,0,0,0,0,0,-4.7415,-4.7493,-4.7471,-4.7482,-4.753,-4.7581,-4.7587,-4.7563,-4.7521,-4.7558,-4.7554,-4.7516,-4.7621,-4.7576,-4.7588,-4.7643,-4.7747,-4.7756,-4.7764,-4.7845,-4.7864,-4.7881,0,0,0,0,0,0,-4.7494,-4.7493,-4.7469,-4.7551,-4.7567,-4.7568,-4.7614,-4.7584,-4.7612,-4.7603,-4.7573,-4.7576,-4.765,-4.7653,-4.7604,-4.7738,-4.7677,-4.7688,-4.7734,-4.7752,-4.7767,-4.7766,-4.7534,0,0,0,0,0,-4.7521,-4.7562,-4.7559,-4.7632,-4.7641,-4.7627,-4.7647,-4.7628,-4.7643,-4.7649,-4.765,-4.7666,-4.7702,-4.7727,-4.776,-4.7851,-4.7853,-4.7895,-4.791,-4.7922,-4.7933,-4.7983,-4.8003,-4.7797,-4.7797,-4.7797,0,0,-4.7577,-4.7581,-4.7609,-4.7648,-4.7657,-4.7702,-4.7632,-4.7681,-4.7714,-4.7656,-4.7722,-4.7723,-4.7739,-4.782,-4.7855,-4.7824,-4.799,-4.7933,-4.7943,-4.7947,-4.7994,-4.8014,-4.8031,-4.7803,-4.7802,-4.7801,0,0,-4.7701,-4.7708,-4.7771,-4.7783,-4.7799,-4.7789,-4.7804,-4.7811,-4.781,-4.7875,-4.7834,-4.7872,-4.7935,-4.7949,-4.7964,-4.8096,-4.8063,-4.8108,-4.8186,-4.8236,-4.8252,-4.8266,-4.8316,-4.8334,-4.8118,-4.8118,-4.8118,0,-4.7769,-4.7834,-4.7807,-4.786,-4.7879,-4.7829,-4.7893,-4.7905,-4.7932,-4.7946,-4.7911,-4.7991,-4.7998,-4.8082,-4.8115,-4.8128,-4.8146,-4.8107,-4.8252,-4.8266,-4.8279,-4.8326,-4.8344,-4.8124,-4.8123,-4.8122,-4.8122,0,-4.7917,-4.7963,-4.8011,-4.8039,-4.8063,-4.8121,-4.8104,-4.8132,-4.8111,-4.8105,-4.8173,-4.8179,-4.8214,-4.8232,-4.8212,-4.8315,-4.8296,-4.8257,-4.8195,-4.8304,-4.8348,-4.8366,-4.8131,-4.8129,-4.8128,-4.8126,0,0,-4.8092,-4.8106,-4.8124,-4.8137,-4.8152,-4.8187,-4.8243,-4.8278,-4.8303,-4.8323,-4.8371,-4.8426,-4.8391,-4.8408,-4.8389,-4.8432,-4.854,-4.8388,-4.8388,-4.8418,-4.8656,-4.8687,-4.8709,-4.8517,-4.852,-4.8523,-4.8656,0,-4.8218,-4.8315,-4.8294,-4.839,-4.8433,-4.8387,-4.8437,-4.8452,-4.8448,-4.8484,-4.8479,-4.852,-4.8469,-4.848,-4.8521,-4.8518,-4.8588,-4.8508,-4.8563,-4.8565,-4.8563,-4.8731,-4.8763,-4.8888,-4.8673,-4.8675,-4.8677,0,-4.8377,-4.8405,-4.8506,-4.8516,-4.8533,-4.8578,-4.8609,-4.8644,-4.866,-4.8654,-4.8675,-4.8648,-4.8705,-4.8641,-4.872,-4.8666,-4.8687,-4.869,-4.8694,-4.87,-4.8629,-4.8744,-4.8927,-4.8947,-4.8704,-4.8702,-4.87,0,-4.8498,-4.856,-4.8629,-4.8641,-4.8654,-4.8687,-4.8694,-4.8707,-4.873,-4.8757,-4.8772,-4.8805,-4.8824,-4.885,-4.8833,-4.8788,-4.8916,-4.885,-4.8914,-4.8915,-4.8945,-4.8943,-4.9137,-4.8955,-4.8954,-4.8954,-4.8954,0,-4.8642,-4.8706,-4.8684,-4.8727,-4.8798,-4.8772,-4.8844,-4.8845,-4.8857,-4.89,-4.8862,-4.8903,-4.8877,-4.8916,-4.8902,-4.8971,-4.8979,-4.8977,-4.8973,-4.8982,-4.8983,-4.8997,-4.8989,-4.8959,-4.8958,-4.8957,-4.8956,0,-4.8789,-4.8777,-4.885,-4.8857,-4.886,-4.8912,-4.8918,-4.8959,-4.8952,-4.9007,-4.9018,-4.9009,-4.9053,-4.9038,-4.9085,-4.9076,-4.9165,-4.9148,-4.916,-4.9157,-4.9222,-4.9217,-4.9433,-4.9461,-4.9259,-4.9261,-4.9263,0,-4.8883,-4.8931,-4.8944,-4.8971,-4.8981,-4.9023,-4.9047,-4.9024,-4.905,-4.9074,-4.9112,-4.9153,-4.9185,-4.9258,-4.9255,-4.9292,-4.9277,-4.9351,-4.9283,-4.9291,-4.9282,-4.928,-4.9286,-4.9365,-4.9367,-4.9369,-4.9371,0,-4.9051,-4.9043,-4.9079,-4.9114,-4.9144,-4.917,-4.9192,-4.9216,-4.9194,-4.9226,-4.9271,-4.9296,-4.9345,-4.9387,-4.9421,-4.9428,-4.9397,-4.9392,-4.9409,-4.942,-4.9425,-4.9426,-4.9199,-4.9387,-4.9386,-4.9385,-4.9384,-4.9383,-4.9176,-4.9218,-4.9235,-4.9277,-4.9291,-4.9314,-4.9353,-4.9352,-4.939,-4.9429,-4.9412,-4.9465,-4.9482,-4.9524,-4.9536,-4.9577,-4.9549,-4.9573,-4.958,-4.9587,-4.9597,-4.9417,-4.9583,-4.9582,-4.9582,-4.9581,-4.9581,0,-4.9344,-4.9353,-4.9392,-4.9426,-4.9459,-4.9427,-4.945,-4.9481,-4.9528,-4.9547,-4.9579,-4.9633,-4.9674,-4.9675,-4.9713,-4.9746,-4.9733,-4.9757,-4.9756,-4.9759,-4.9618,-4.9601,-4.9768,-4.9768,-4.9768,-4.9768,-4.9768,-4.9767,-4.9436,-4.9507,-4.9501,-4.9579,-4.9587,-4.964,-4.9656,-4.9677,-4.9692,-4.9754,-4.9788,-4.9788,-4.9801,-4.984,-4.9877,-4.9876,-4.9893,-4.9923,-4.9917,-4.9787,-4.9768,-4.975,-4.9734,-4.9926,-4.9927,-5.0054,-5.0056,-5.0057]},{"header":{"parameterUnit":"m.s-1","parameterCategory":1,"la1":30.2991,"la2":30.254,"lo1":-89.0895,"lo2":-89.0444,"dy":0.0017,"dx":0.0017,"nx":28,"ny":28,"refTime":"2024-03-04T03:00:00:Z","depth":0,"parameterNumber":3,"parameterNumberName":"V-component_of_WINDS"},"data":[0,0,0,0,0,0,0,0,0,0,0,0,0,0,0,0,0,0,0,0,0,0,0,0,0,0,0,0,0,0,0,0,0,0,0,0,0,0,0,0,0,0,0,0,0,0,0,0,0,0,0,0,0,0,0,0,0,0,-4.1268,-4.1268,0,-4.1302,-4.1302,-4.1302,-4.1252,-4.1251,-4.1249,-4.1247,-4.1278,-4.1281,-4.1283,0,0,0,0,0,0,0,0,0,0,0,0,0,-4.1158,-4.116,-4.1268,-4.1269,-4.1269,-4.1302,-4.1302,-4.1302,-4.1253,-4.125,-4.1248,-4.1246,-4.1278,-4.128,-4.1283,0,0,0,0,0,0,0,0,0,0,0,0,0,-4.12,-4.1161,-4.1268,-4.1248,-4.1247,-4.1301,-4.1302,-4.1303,-4.1253,-4.125,-4.1248,-4.1245,-4.1277,-4.128,-4.1284,-4.1359,0,0,-4.1295,-4.1297,0,0,0,0,0,0,0,0,-4.1198,-4.1204,-4.1251,-4.125,-4.1248,-4.127,-4.1275,-4.1321,-4.1254,-4.125,-4.1247,-4.1244,-4.1278,-4.1281,-4.1293,-4.136,-4.1362,-4.1295,-4.1298,-4.1299,-4.13,0,0,0,0,0,0,0,-4.1195,-4.1202,-4.1281,-4.1251,-4.125,-4.1236,-4.124,-4.1283,-4.1278,-4.1251,-4.1247,-4.1252,-4.1276,-4.1289,-4.1293,-4.1362,-4.1295,-4.1299,-4.1301,-4.1302,-4.1493,-4.1496,0,0,0,0,0,0,-4.1195,-4.12,-4.128,-4.1282,-4.1216,-4.1241,-4.1244,-4.1266,-4.1278,-4.1277,-4.1254,-4.1249,-4.1284,-4.1289,-4.1294,-4.1383,-4.1299,-4.1303,-4.1305,-4.149,-4.1494,-4.1497,0,0,0,0,0,0,-4.1193,-4.1202,-4.1279,-4.124,-4.1249,-4.1245,-4.127,-4.1268,-4.1281,-4.128,-4.1279,-4.1269,-4.1283,-4.1289,-4.1343,-4.1384,-4.1304,-4.1308,-4.1487,-4.1491,-4.1495,-4.1562,0,0,0,0,0,0,-4.119,-4.1202,-4.1231,-4.1241,-4.1251,-4.1329,-4.1272,-4.127,-4.1288,-4.1282,-4.1294,-4.1293,-4.1281,-4.1338,-4.1347,-4.1387,-4.131,-4.1483,-4.1489,-4.1494,-4.1556,-4.1568,-4.1578,0,0,0,0,0,-4.1186,-4.1248,-4.1233,-4.1243,-4.1288,-4.1331,-4.1336,-4.1322,-4.1291,-4.132,-4.132,-4.1293,-4.1378,-4.1344,-4.1354,-4.1396,-4.1481,-4.1487,-4.1493,-4.1551,-4.1566,-4.1578,0,0,0,0,0,0,-4.124,-4.1248,-4.1232,-4.1299,-4.1315,-4.1322,-4.1358,-4.1338,-4.1362,-4.1356,-4.1336,-4.1339,-4.1398,-4.1402,-4.1364,-4.1469,-4.1424,-4.1433,-4.1465,-4.1478,-4.1489,-4.1487,-4.1314,0,0,0,0,0,-4.1261,-4.1296,-4.1301,-4.1359,-4.1368,-4.1362,-4.138,-4.1368,-4.1383,-4.1389,-4.1393,-4.1408,-4.1438,-4.1458,-4.1486,-4.1556,-4.1558,-4.159,-4.1601,-4.161,-4.1618,-4.1656,-4.167,-4.1518,-4.1518,-4.1518,0,0,-4.1302,-4.1311,-4.1334,-4.1371,-4.1381,-4.1418,-4.1368,-4.1408,-4.1435,-4.1395,-4.1447,-4.1451,-4.1466,-4.1529,-4.1557,-4.1534,-4.166,-4.1618,-4.1625,-4.1628,-4.1664,-4.1679,-4.1692,-4.1522,-4.1522,-4.1521,0,0,-4.1396,-4.1406,-4.1457,-4.1469,-4.1487,-4.1482,-4.1495,-4.1505,-4.1507,-4.1559,-4.153,-4.1561,-4.1613,-4.1625,-4.1638,-4.1738,-4.1715,-4.1748,-4.1805,-4.1843,-4.1855,-4.1866,-4.1902,-4.1915,-4.1755,-4.1756,-4.1756,0,-4.1445,-4.15,-4.1485,-4.1528,-4.1545,-4.1512,-4.1563,-4.1575,-4.16,-4.1612,-4.1586,-4.1652,-4.166,-4.1726,-4.175,-4.1762,-4.1775,-4.1747,-4.1855,-4.1865,-4.1875,-4.1909,-4.1923,-4.176,-4.1759,-4.1759,-4.1758,0,-4.1559,-4.1598,-4.1636,-4.1664,-4.1685,-4.1731,-4.1723,-4.1746,-4.1732,-4.173,-4.1784,-4.1792,-4.1822,-4.1836,-4.1822,-4.1901,-4.1886,-4.1858,-4.1812,-4.1894,-4.1926,-4.1939,-4.1765,-4.1764,-4.1763,-4.1762,0,0,-4.1688,-4.1708,-4.1722,-4.1734,-4.1752,-4.1781,-4.1826,-4.1856,-4.1876,-4.1894,-4.1932,-4.1977,-4.1952,-4.1966,-4.1954,-4.1987,-4.2066,-4.1955,-4.1955,-4.1976,-4.2154,-4.2175,-4.2191,-4.2051,-4.2053,-4.2055,-4.2153,0,-4.1783,-4.1862,-4.1851,-4.1927,-4.1962,-4.1932,-4.1971,-4.1986,-4.1985,-4.2015,-4.2013,-4.2047,-4.201,-4.2019,-4.205,-4.205,-4.2102,-4.2043,-4.2085,-4.2087,-4.2083,-4.2207,-4.223,-4.2322,-4.2165,-4.2167,-4.2169,0,-4.1904,-4.1929,-4.2009,-4.2022,-4.2036,-4.2072,-4.2099,-4.2128,-4.2143,-4.2141,-4.2158,-4.214,-4.2184,-4.2138,-4.2199,-4.2159,-4.2175,-4.2178,-4.2181,-4.2185,-4.2133,-4.2215,-4.2351,-4.2365,-4.2188,-4.2186,-4.2185,0,-4.1991,-4.2044,-4.21,-4.2111,-4.2127,-4.2153,-4.2161,-4.2174,-4.2193,-4.2216,-4.2228,-4.2255,-4.2271,-4.2292,-4.2281,-4.2248,-4.2345,-4.2297,-4.2344,-4.2344,-4.2366,-4.2365,-4.2507,-4.2375,-4.2375,-4.2375,-4.2374,0,-4.2098,-4.2148,-4.2139,-4.2173,-4.2229,-4.2215,-4.227,-4.2273,-4.2286,-4.2319,-4.2294,-4.2326,-4.231,-4.234,-4.2332,-4.2384,-4.2391,-4.239,-4.2387,-4.2393,-4.2393,-4.2403,-4.2397,-4.2378,-4.2378,-4.2377,-4.2376,0,-4.2205,-4.22,-4.2259,-4.227,-4.2274,-4.2315,-4.2324,-4.2355,-4.2353,-4.2396,-4.2406,-4.2402,-4.2437,-4.2429,-4.2466,-4.2461,-4.2527,-4.2515,-4.2522,-4.252,-4.2567,-4.2563,-4.2722,-4.2742,-4.2597,-4.2598,-4.2599,0,-4.2274,-4.2312,-4.2328,-4.235,-4.236,-4.2395,-4.2415,-4.2402,-4.2423,-4.2445,-4.2474,-4.2507,-4.2532,-4.2589,-4.259,-4.2619,-4.2608,-4.2662,-4.2612,-4.2617,-4.261,-4.2608,-4.2612,-4.2672,-4.2674,-4.2675,-4.2676,0,-4.2397,-4.2393,-4.2423,-4.2454,-4.2479,-4.2501,-4.2521,-4.254,-4.2529,-4.2554,-4.259,-4.261,-4.265,-4.2683,-4.271,-4.2716,-4.2695,-4.2692,-4.2704,-4.271,-4.2713,-4.2713,-4.255,-4.2688,-4.2687,-4.2686,-4.2685,-4.2685,-4.2487,-4.252,-4.2537,-4.2572,-4.2586,-4.2606,-4.2637,-4.264,-4.267,-4.2702,-4.2692,-4.2734,-4.2748,-4.2782,-4.2793,-4.2824,-4.2804,-4.2822,-4.2827,-4.2832,-4.2838,-4.2708,-4.2829,-4.2829,-4.2828,-4.2828,-4.2828,0,-4.2609,-4.2619,-4.2652,-4.2682,-4.2709,-4.2688,-4.2709,-4.2733,-4.277,-4.2787,-4.2813,-4.2855,-4.2887,-4.2891,-4.2921,-4.2946,-4.2937,-4.2954,-4.2953,-4.2955,-4.2854,-4.2841,-4.2961,-4.2961,-4.2961,-4.2961,-4.2961,-4.2961,-4.2676,-4.2732,-4.2731,-4.2793,-4.2802,-4.2844,-4.2858,-4.2876,-4.2889,-4.2938,-4.2965,-4.2967,-4.2979,-4.301,-4.3038,-4.3038,-4.3051,-4.3073,-4.3069,-4.2975,-4.2962,-4.2949,-4.2936,-4.3075,-4.3075,-4.3167,-4.3168,-4.3169]}]]